Погода в Кировограде

Погода в Кировограде : погода сейчас, прогноз погоды и архив. Всё, что Вы хотите узнать о погоде в Кировограде!

Хотите узнать прогноз погоды в Кировограде? Тогда Вам сюда: Погода в Кировограде

Поиск расширенной информации на нашем сайте:

Другие новости

Новости СМИ2

Главная страница сайта

Новости сайта

02.10.2013

Напоминаем, что на нашем новом сайте вы можете получить высокодетализированные прогнозы погоды по пунктам России, СНГ и мира (включающие важные для авиации метеовеличины, такие как направление и скорость ветра, видимость, явления погоды, количество и форма облачности, нижняя и верхняя граница облачности), а также ознакомиться с разнообразными материалами по авиационной метеорологии и подборкой полезных ссылок на эту тему.

Сайт Метеоцентр.Азия посвящён разработке технологий оптимизации авиаметеорологического обслуживания, включая проектирование и перспективное создание нескольких автоматизированных авиаметеорологических систем:
- система выпуска высокодетальных прогностических карт явлений погоды для нижнего воздушного пространства по России и ближнему зарубежью;
- система верификации прогнозов TAF (выпускаемых синоптиками официальных АМСГ РФ и ближнего зарубежья) и AUTOTAF (выпускаемых сайтом Метеоцентр.Азия) - выявление ошибок, онлайн-сопоставление с фактической погодой METAR, автоматическое внесение коррективов в прогнозы при резком отклонении фактической погоды от прогноза, подсчёт оправдываемости прогнозов по элементам и в целом;
- система обработки, анализа и отображения авиаметеорологической информации для применения провайдерами метеорологической информации.


Погода в Кировограде - сегодня

Время (UTC), дата Ветер
(°,м/с) 
Видим.   Явления Облачность Т
(°С)
Тd
(°С)
f(%) Тe
(°С)
Pmin
(гПа)
dP
(гПа)
Po
(мм)
O2
(г/м3)
Тmin Tmax R s Состояние
почвы
18 24.04.17 270 (З) 4000 м  {ливн. осадки}  10/10 1000 м кучево-дожд. 
[Cb calv]
+5.7 -0.3 65 +7  1017.9  2.4  748  295    +10.8     
21 24.04.17 210 (ЮЗ) 4000 м    ясно 
+3.2 +0 79 +3  1019.5  1.4  749  298           
00 25.04.17 270 (З) 4000 м    ясно 
+1.8 -0.4 85 +1  1020.7  1.1  749  300           
03 25.04.17 тихо ()   20000 м    ясно 
+0.4 -0.7 92 1022.4  1.5  751  302           
06 25.04.17 220 (ЮЗ) 20000 м    ясно 
+6.1 +0.8 69 +5  1023.1  1.2  752  296  +0         
09 25.04.17 220 (ЮЗ) 20000 м    6/6 1500 м 
[Sc]
+12.3 -3.1 34 +11  1022.8  0.1  752  290           
12 25.04.17 200 (Ю) 20000 м    6/6 1500 м 
[Sc]
+15.5 -2.7 28 +15  1020.9  -1.6  750  286           
15 25.04.17 200 (Ю) 20000 м    5/5 1500 м 
[Sc]
+15.1 -0.7 34 +14  1019.9  -1  750  286           
18 25.04.17 190 (Ю) 4000 м    4/0 верхняя 
[Ci fib]
+10.8 +0.6 49 +9  1021.1  0.9  750  291    +16.4       
21 25.04.17 180 (Ю) 4000 м    ясно 
+6.7 -1.6 55 +5  1022.3  0.8  751  295           
00 26.04.17 180 (Ю) 4000 м    ясно 
+4.6 -0.8 68 +2  1022.4  751  298           
03 26.04.17 170 (Ю) 20000 м    10/0 верхняя 
[Ci fib]
+4 -0.9 70 +1  1022.4  -0.1  751  298           
06 26.04.17 190 (Ю) 10  20000 м    3/0 верхняя 
[Ci fib]
+9.1 +1.3 58 +6  1022.4  0.4  751  293  +3.5         
09 26.04.17 180 (Ю) 12  20000 м    ясно 
+15.3 -0 35 +14  1022.1  0.2  751  287           
12 26.04.17 180 (Ю) 10  20000 м    6/0 верхняя 
[Ci fib]
+17.6 -0.6 29 +17  1020.6  -1.4  750  284           
15 26.04.17 200 (Ю) 10  20000 м    8/0 верхняя 
[Ci fib]
+16.7 -0.8 30 +16  1020.1  -0.5  750  285           
18 26.04.17 190 (Ю) 4000 м    8/0 верхняя 
[Ci fib]
+12 -3.2 34 +11  1021.2  0.7  750  290    +18.4       
21 26.04.17 180 (Ю) 4000 м    5/0 верхняя 
[Ci fib]
+7.2 -2.6 50 +6  1022  0.5  751  295           
00 27.04.17 170 (Ю) 4000 м    ясно 
+4.9 +1.1 76 +2  1021.5  -0.7  750  297           
03 27.04.17 180 (Ю) 20000 м    8/8 150 м 
[St]
+4.6 +3.4 92 +2  1021.1  -0.4  750  297           
06 27.04.17 170 (Ю) 20000 м    8/0 верхняя 
[Ci fib]
+9.4 +2.3 61 +8  1021.3  0.6  750  292  +3.8         
09 27.04.17 180 (Ю) 20000 м    6/0 верхняя 
[Ci fib]
+17.2 -1.4 28 +17  1020  -0.8  750  284           
12 27.04.17 190 (Ю) 20000 м    10/0 верхняя 
[Ci fib]
+19.7 -5.2 18 +20  1018.9  -0.9  749  282           
15 27.04.17 190 (Ю) 20000 м    10/0 верхняя 
[Ci fib]
+19.2 -5.9 18 +19  1018.5  -0.4  749  282           
18 27.04.17 170 (Ю) 4000 м    9/0 верхняя 
[Ci fib]
+13.8 -5.3 26 +13  1019.5  0.6  749  288    +21.2       
Время (UTC), дата Ветер
(°,м/с) 
Видим.   Явления Облачность Т
(°С)
Тd
(°С)
f(%) Тe
(°С)
Pmin
(гПа)
dP
(гПа)
Po
(мм)
O2
(г/м3)
Тmin Tmax R s Состояние
почвы

Для получения пояснительной информации подведите курсор к названию столбца.

ПОГОДА в Кировограде - архив

Всё, что Вы хотите узнать о погоде в Кировограде - удобно и подробно!

Выберите нужную дату (начиная с 1 января 2015* года) и нажмите кнопку "Найти".
Будут отображены архивные сводки погоды по пункту Кировоград, начиная с указанной даты.


Отображать данные в формате CSV (для использования в таблицах Excel)


Внимание! Наш архив погоды предназначен исключительно для личного некоммерческого использования в познавательных целях. Если Вам необходимы официальные справки о состоянии погоды (для производственных, юридических, коммерческих и т.п. целей), обращайтесь в органы Росгидромета.

*Примечание: данная дата относится к архиву по метеостанциям СССР (Россия, СНГ, Балтия).
Архив по метеостанциям Зарубежной Европы и Азии (кроме Китая) хранится 10 дней, по другим регионам земного шара (Китай, Африка, Америка, Австралия, Океания) - 1 день.

Кировоград - район местоположения метеостанции


Название, широта, долгота, высота метеостанции:
Кировоград 48.5°ш. 32.2°д. 171 м над ур. моря [Украина]

Дополнительная информация

В oтличие oт бoльшинства пoгoдных сайтoв мы публикуем пoдрoбную метеoинфoрмацию в детальнoм прoфессиoнальнoм фoрмате.

Характеристики температуры и влажнoсти вoздуха измеряются на высoте 2 м в тени вдали oт зданий и деревьев.
Скoрoсть ветра измеряется на высoте 10 м (на урoвне рoста челoвека скoрoсть ветра ниже в 1.5-2 раза). Если метеoстанция нахoдится в гoрoде или в лесу, тo скoрoсть ветра занижена на 2-4 м/с пo сравнению с oткрытым местoм. Скoрoсть ветра над акватoриями крупных рек и oзёр, а также на вершинах хoлмoв на 2-5 м/с выше, чем в oбычных услoвиях.
Атмoсфернoе давление в разных тoчках местнoсти мoжет значительнo oтличаться oт давления на метеoстанции, в зависимoсти oт услoвий рельефа (при пoдъёме на 10 м давление пoнижается примернo на 1 мм рт.ст.).